| time (UTC) | temp F | wind direction | speed MPH | gust MPH | rain 1hr in | rain 24hr in | rain mn in | humidity % | barometer mb |
| 20260506224550 | 79 | 316 | 1.0 | 4.0 | 0.00 | 0.00 | 0.00 | 48 | 1017.2 |
| 20260506223048 | 79 | 270 | 3.0 | 10.0 | 0.00 | 0.00 | 0.00 | 50 | 1017.4 |
| 20260506221603 | 78 | 98 | 1.0 | 9.0 | 0.00 | 0.00 | 0.00 | 49 | 1017.5 |
| 20260506220046 | 78 | 299 | 2.0 | 5.0 | 0.00 | 0.00 | 0.00 | 49 | 1017.7 |
| 20260506214543 | 78 | 241 | 1.0 | 6.0 | 0.00 | 0.00 | 0.00 | 52 | 1018.0 |
| 20260506213043 | 77 | 271 | 3.0 | 6.0 | 0.00 | 0.00 | 0.00 | 51 | 1018.1 |
| 20260506211536 | 76 | 270 | 3.0 | 7.0 | 0.00 | 0.00 | 0.00 | 54 | 1018.3 |
| 20260506210049 | 75 | 287 | 2.0 | 4.0 | 0.00 | 0.00 | 0.00 | 54 | 1018.5 |
| 20260506204535 | 74 | 238 | 2.0 | 7.0 | 0.00 | 0.00 | 0.00 | 55 | 1018.6 |
| 20260506203037 | 74 | 276 | 1.0 | 4.0 | 0.00 | 0.00 | 0.00 | 55 | 1018.6 |
| 20260506201534 | 74 | 337 | 0.0 | 4.0 | 0.00 | 0.00 | 0.00 | 55 | 1018.8 |
| 20260506200035 | 74 | 246 | 2.0 | 4.0 | 0.00 | 0.00 | 0.00 | 54 | 1019.1 |
| 20260506194533 | 75 | 333 | 1.0 | 6.0 | 0.00 | 0.00 | 0.00 | 55 | 1019.2 |
| 20260506193036 | 74 | 253 | 1.0 | 4.0 | 0.00 | 0.00 | 0.00 | 57 | 1019.2 |
| 20260506191527 | 72 | 240 | 1.0 | 5.0 | 0.00 | 0.00 | 0.00 | 59 | 1019.3 |
| 20260506190024 | 72 | 259 | 1.0 | 3.0 | 0.00 | 0.00 | 0.00 | 58 | 1019.5 |
| 20260506184521 | 71 | 267 | 3.0 | 7.0 | 0.00 | 0.00 | 0.00 | 60 | 1019.6 |
| 20260506183015 | 69 | 263 | 1.0 | 7.0 | 0.00 | 0.00 | 0.00 | 64 | 1019.7 |
| 20260506181511 | 68 | 23 | 3.0 | 9.0 | 0.00 | 0.00 | 0.00 | 66 | 1019.7 |
| 20260506180011 | 68 | 246 | 2.0 | 6.0 | 0.00 | 0.00 | 0.00 | 67 | 1019.6 |
| 20260506174504 | 66 | 252 | 4.0 | 8.0 | 0.00 | 0.00 | 0.00 | 69 | 1019.7 |
| 20260506173003 | 65 | 254 | 3.0 | 8.0 | 0.00 | 0.00 | 0.00 | 71 | 1019.8 |
| 20260506171558 | 65 | 247 | 3.0 | 12.0 | 0.00 | 0.00 | 0.00 | 72 | 1019.8 |
| 20260506170106 | 63 | 360 | 2.0 | 8.0 | 0.00 | 0.00 | 0.00 | 74 | 1019.8 |
| 20260506164603 | 62 | 360 | 3.0 | 9.0 | 0.00 | 0.00 | 0.00 | 75 | 1019.8 |
| 20260506163056 | 61 | 360 | 4.0 | 8.0 | 0.00 | 0.00 | 0.00 | 77 | 1019.9 |
| 20260506161546 | 60 | 269 | 3.0 | 8.0 | 0.00 | 0.00 | 0.00 | 80 | 1019.9 |
| 20260506160048 | 59 | 259 | 3.0 | 8.0 | 0.00 | 0.00 | 0.00 | 82 | 1019.9 |
| 20260506154542 | 58 | 232 | 5.0 | 8.0 | 0.00 | 0.00 | 0.00 | 82 | 1019.9 |
| 20260506153034 | 58 | 243 | 4.0 | 8.0 | 0.00 | 0.00 | 0.00 | 83 | 1019.9 |
| 20260506151537 | 57 | 236 | 4.0 | 9.0 | 0.00 | 0.00 | 0.00 | 84 | 1019.8 |
| 20260506150031 | 57 | 257 | 1.0 | 4.0 | 0.00 | 0.00 | 0.00 | 86 | 1019.9 |
| 20260506144529 | 57 | 360 | 0.0 | 4.0 | 0.00 | 0.00 | 0.00 | 86 | 1020.0 |
| 20260506143025 | 56 | 360 | 0.0 | 1.0 | 0.00 | 0.00 | 0.00 | 86 | 1019.8 |
| 20260506141528 | 56 | 288 | 0.0 | 0.0 | 0.00 | 0.00 | 0.00 | 86 | 1019.6 |
| 20260506140016 | 56 | 360 | 0.0 | 0.0 | 0.00 | 0.00 | 0.00 | 87 | 1019.4 |
| 20260506134514 | 56 | 360 | 0.0 | 0.0 | 0.00 | 0.00 | 0.00 | 87 | 1019.4 |
| 20260506133011 | 56 | 360 | 0.0 | 0.0 | 0.00 | 0.00 | 0.00 | 86 | 1019.2 |
| 20260506131512 | 56 | 360 | 0.0 | 0.0 | 0.00 | 0.00 | 0.00 | 86 | 1019.2 |
| 20260506130010 | 56 | 360 | 0.0 | 0.0 | 0.00 | 0.00 | 0.00 | 86 | 1019.2 |
| 20260506124509 | 56 | 360 | 0.0 | 0.0 | 0.00 | 0.00 | 0.00 | 86 | 1019.1 |
| 20260506123012 | 56 | 360 | 0.0 | 0.0 | 0.00 | 0.00 | 0.00 | 87 | 1019.2 |
| 20260506121512 | 56 | 360 | 0.0 | 0.0 | 0.00 | 0.00 | 0.00 | 86 | 1019.1 |
| 20260506120015 | 55 | 360 | 0.0 | 3.0 | 0.00 | 0.00 | 0.00 | 86 | 1018.9 |
| 20260506114506 | 55 | 360 | 0.0 | 2.0 | 0.00 | 0.00 | 0.00 | 87 | 1019.0 |
| 20260506113006 | 56 | 360 | 0.0 | 0.0 | 0.00 | 0.00 | 0.00 | 87 | 1019.0 |
| 20260506111504 | 56 | 360 | 0.0 | 0.0 | 0.00 | 0.03 | 0.00 | 87 | 1018.9 |
| 20260506110003 | 56 | 360 | 0.0 | 0.0 | 0.00 | 0.03 | 0.00 | 87 | 1018.7 |
| 20260506104502 | 56 | 360 | 0.0 | 1.0 | 0.00 | 0.03 | 0.00 | 87 | 1018.4 |
| 20260506103005 | 56 | 360 | 0.0 | 0.0 | 0.00 | 0.03 | 0.00 | 87 | 1018.4 |
| 20260506101504 | 56 | 360 | 0.0 | 0.0 | 0.00 | 0.06 | 0.00 | 87 | 1018.3 |
| 20260506100113 | 56 | 360 | 0.0 | 0.0 | 0.00 | 0.06 | 0.00 | 87 | 1018.2 |
| 20260506094604 | 56 | 360 | 0.0 | 0.0 | 0.00 | 0.06 | 0.00 | 87 | 1018.2 |
| 20260506093101 | 56 | 360 | 0.0 | 5.0 | 0.00 | 0.06 | 0.00 | 87 | 1018.1 |
| 20260506091558 | 56 | 360 | 0.0 | 0.0 | 0.00 | 0.09 | 0.00 | 87 | 1018.3 |
| 20260506090104 | 55 | 360 | 0.0 | 0.0 | 0.00 | 0.09 | 0.00 | 87 | 1018.3 |
| 20260506084624 | 55 | 360 | 0.0 | 0.0 | 0.00 | 0.09 | 0.00 | 86 | 1018.3 |
| 20260506083055 | 55 | 360 | 0.0 | 2.0 | 0.00 | 0.09 | 0.00 | 86 | 1018.4 |
| 20260506081559 | 55 | 360 | 0.0 | 3.0 | 0.00 | 0.15 | 0.00 | 86 | 1018.6 |
| 20260506073051 | 55 | 360 | 0.0 | 2.0 | 0.00 | 0.15 | 0.00 | 84 | 1018.0 |
| 20260506071548 | 56 | 360 | 1.0 | 3.0 | 0.00 | 0.17 | 0.00 | 83 | 1017.9 |
| 20260506061539 | 57 | 284 | 3.0 | 7.0 | 0.00 | 0.17 | 0.00 | 81 | 1017.3 |
| 20260506044529 | 60 | 260 | 3.0 | 6.0 | 0.00 | 0.17 | 0.00 | 80 | 1016.3 |
| 20260506043025 | 60 | 225 | 2.0 | 4.0 | 0.00 | 0.17 | 0.00 | 80 | 1016.2 |
| 20260506041523 | 60 | 223 | 3.0 | 4.0 | 0.00 | 0.17 | 0.17 | 80 | 1016.0 |
| 20260506040029 | 60 | 223 | 2.0 | 3.0 | 0.00 | 0.17 | 0.17 | 80 | 1015.9 |
| 20260506034523 | 61 | 223 | 2.0 | 4.0 | 0.00 | 0.17 | 0.17 | 80 | 1015.7 |
| 20260506033020 | 61 | 223 | 0.0 | 0.0 | 0.00 | 0.17 | 0.17 | 80 | 1015.7 |
| 20260506031521 | 62 | 223 | 0.0 | 0.0 | 0.00 | 0.17 | 0.17 | 80 | 1015.6 |
| 20260506030021 | 62 | 223 | 0.0 | 0.0 | 0.00 | 0.17 | 0.17 | 79 | 1015.4 |
| 20260506024521 | 62 | 223 | 0.0 | 0.0 | 0.00 | 0.17 | 0.17 | 77 | 1015.2 |
| 20260506023035 | 62 | 223 | 0.0 | 2.0 | 0.00 | 0.17 | 0.17 | 76 | 1015.2 |
| 20260506021532 | 62 | 223 | 0.0 | 3.0 | 0.00 | 0.17 | 0.17 | 76 | 1015.1 |
| 20260506020024 | 63 | 222 | 2.0 | 4.0 | 0.00 | 0.17 | 0.17 | 75 | 1014.9 |
| 20260506014520 | 63 | 222 | 1.0 | 4.0 | 0.00 | 0.17 | 0.17 | 74 | 1014.9 |
| 20260506013026 | 63 | 222 | 3.0 | 7.0 | 0.00 | 0.17 | 0.17 | 72 | 1015.0 |
| 20260506011518 | 64 | 230 | 4.0 | 7.0 | 0.00 | 0.17 | 0.17 | 71 | 1014.9 |
| 20260506010018 | 64 | 227 | 4.0 | 6.0 | 0.00 | 0.17 | 0.17 | 71 | 1014.8 |
| 20260506004520 | 64 | 232 | 4.0 | 7.0 | 0.00 | 0.17 | 0.17 | 71 | 1014.8 |
| 20260506003016 | 65 | 221 | 3.0 | 8.0 | 0.00 | 0.17 | 0.17 | 71 | 1014.7 |
| 20260506001515 | 65 | 229 | 3.0 | 9.0 | 0.00 | 0.17 | 0.17 | 71 | 1014.7 |
| 20260506000021 | 65 | 227 | 1.0 | 6.0 | 0.00 | 0.17 | 0.17 | 72 | 1014.7 |
| 20260505234517 | 65 | 236 | 3.0 | 8.0 | 0.00 | 0.17 | 0.17 | 71 | 1014.5 |
| 20260505233014 | 65 | 360 | 4.0 | 9.0 | 0.00 | 0.17 | 0.17 | 72 | 1014.5 |
| 20260505231527 | 64 | 360 | 2.0 | 8.0 | 0.00 | 0.17 | 0.17 | 72 | 1014.4 |
| 20260505230010 | 64 | 360 | 3.0 | 6.0 | 0.00 | 0.17 | 0.17 | 73 | 1014.5 |